STARLINK-1989 (47585 NORAD) Tracking and Keplerian Element Data
This shows tracking and keplerian element data for the satellite.
Feedback or suggestion? Click here.
Element | Value |
Catalog | 47585 |
Name | STARLINK-1989 |
Epoch Orbit | 176 |
Epoch Day | 59.91667824 |
Epoch Year | 2021 |
RAAN | 2.9852 |
Inclination | 53.0544 |
Eccentricity | 9.14E-05 |
Argument of Perigee | 65.7318 |
Mean Anonmoly | 267.1682 |
Mean Motion | 15.62779411 |
Decay Rate | -0.00031275 |
L1 | 1 47585U 21009AP 21059.91667824 -.00031275 00000-0 -33671-3 0 9994 |
L2 | 2 47585 53.0544 2.9852 0000914 65.7318 267.1682 15.62779411 1761 |
Live tracking and technical data element details for STARLINK-1989 (NORAD 47585). STARLINK-1989 can be tracked NOW for your location showing map with azimuth and elevation plus other details from your city location.
Track the satellite on the map from your city or location and see movement details for azimuth, elevation, latitude, longitude, range, height, and movement on the map or in text.
IsCatalogInMostPopularTable: catalog: 47585, numindb: 4
Update: records affected: 1
GetName: 47585 STARLINK-1989
Hit Count: updated at: Mon, 01 Mar 2021 15:49:46 GMT